owner,sensor,date,latitude,longitude,vertical_datum,mass_concentration_of_oxygen_in_sea_water,qcFlag 
SCCF RECON,ioos:station:SCCF:11:1,2017-07-01T00:00:00Z,26.4679,-82.0631,1.921,5.2,1111122 
SCCF RECON,ioos:station:SCCF:11:1,2017-07-01T01:00:00Z,26.4679,-82.0631,1.94,5.85,1111122 
SCCF RECON,ioos:station:SCCF:11:1,2017-07-01T02:00:00Z,26.4679,-82.0631,1.95,6.37,1111122 
SCCF RECON,ioos:station:SCCF:11:1,2017-07-01T03:00:00Z,26.4679,-82.0631,1.938,6.12,1111122 
SCCF RECON,ioos:station:SCCF:11:1,2017-07-01T04:00:00Z,26.4679,-82.0631,1.9,5.57,1111122 
SCCF RECON,ioos:station:SCCF:11:1,2017-07-01T05:00:00Z,26.4679,-82.0631,1.849,5.02,1111122 
SCCF RECON,ioos:station:SCCF:11:1,2017-07-01T06:00:00Z,26.4679,-82.0631,1.8,4.84,1111122 
SCCF RECON,ioos:station:SCCF:11:1,2017-07-01T07:00:00Z,26.4679,-82.0631,1.76,4.86,1111122 
SCCF RECON,ioos:station:SCCF:11:1,2017-07-01T08:00:00Z,26.4679,-82.0631,1.74,5.1,1111122 
SCCF RECON,ioos:station:SCCF:11:1,2017-07-01T09:00:00Z,26.4679,-82.0631,1.747,5.34,1111122 
SCCF RECON,ioos:station:SCCF:11:1,2017-07-01T10:00:00Z,26.4679,-82.0631,1.79,4.89,1111122 
SCCF RECON,ioos:station:SCCF:11:1,2017-07-01T11:00:00Z,26.4679,-82.0631,1.85,4.57,1111122 
SCCF RECON,ioos:station:SCCF:11:1,2017-07-01T12:00:00Z,26.4679,-82.0631,1.926,4.49,1111122 
SCCF RECON,ioos:station:SCCF:11:1,2017-07-01T13:00:00Z,26.4679,-82.0631,1.98,3.96,1111122 
SCCF RECON,ioos:station:SCCF:11:1,2017-07-01T14:00:00Z,26.4679,-82.0631,2.0,4.59,1111122 
SCCF RECON,ioos:station:SCCF:11:1,2017-07-01T15:00:00Z,26.4679,-82.0631,2.01,4.81,1111122 
SCCF RECON,ioos:station:SCCF:11:1,2017-07-01T16:00:00Z,26.4679,-82.0631,2.0,4.88,1111122 
SCCF RECON,ioos:station:SCCF:11:1,2017-07-01T17:00:00Z,26.4679,-82.0631,1.97,5.36,1111122 
SCCF RECON,ioos:station:SCCF:11:1,2017-07-01T18:00:00Z,26.4679,-82.0631,1.951,5.78,1111122 
SCCF RECON,ioos:station:SCCF:11:1,2017-07-01T19:00:00Z,26.4679,-82.0631,1.929,5.99,1111122 
SCCF RECON,ioos:station:SCCF:11:1,2017-07-01T20:00:00Z,26.4679,-82.0631,1.893,7.12,1111122 
SCCF RECON,ioos:station:SCCF:11:1,2017-07-01T21:00:00Z,26.4679,-82.0631,1.86,6.4,1111122 
SCCF RECON,ioos:station:SCCF:11:1,2017-07-01T22:00:00Z,26.4679,-82.0631,1.859,6.17,1111122 
SCCF RECON,ioos:station:SCCF:11:1,2017-07-01T23:00:00Z,26.4679,-82.0631,1.86,5.41,1111122 
SCCF RECON,ioos:station:SCCF:11:1,2017-07-02T00:00:00Z,26.4679,-82.0631,1.86,5.8,1111122 
SCCF RECON,ioos:station:SCCF:11:1,2017-07-02T01:00:00Z,26.4679,-82.0631,1.88,5.67,1111122 
SCCF RECON,ioos:station:SCCF:11:1,2017-07-02T02:00:00Z,26.4679,-82.0631,1.885,4.94,1111122 
SCCF RECON,ioos:station:SCCF:11:1,2017-07-02T03:00:00Z,26.4679,-82.0631,1.88,5.83,1111122 
SCCF RECON,ioos:station:SCCF:11:1,2017-07-02T04:00:00Z,26.4679,-82.0631,1.87,5.48,1111122 
SCCF RECON,ioos:station:SCCF:11:1,2017-07-02T05:00:00Z,26.4679,-82.0631,1.85,5.4,1111122 
SCCF RECON,ioos:station:SCCF:11:1,2017-07-02T06:00:00Z,26.4679,-82.0631,1.82,5.29,1111122 
SCCF RECON,ioos:station:SCCF:11:1,2017-07-02T07:00:00Z,26.4679,-82.0631,1.79,4.74,1111122 
SCCF RECON,ioos:station:SCCF:11:1,2017-07-02T08:00:00Z,26.4679,-82.0631,1.77,5.28,1111122 
SCCF RECON,ioos:station:SCCF:11:1,2017-07-02T09:00:00Z,26.4679,-82.0631,1.75,5.22,1111122 
SCCF RECON,ioos:station:SCCF:11:1,2017-07-02T10:00:00Z,26.4679,-82.0631,1.78,4.7,1111122 
SCCF RECON,ioos:station:SCCF:11:1,2017-07-02T11:00:00Z,26.4679,-82.0631,1.85,4.55,1111122 
SCCF RECON,ioos:station:SCCF:11:1,2017-07-02T12:00:00Z,26.4679,-82.0631,1.911,4.66,1111122 
SCCF RECON,ioos:station:SCCF:11:1,2017-07-02T13:00:00Z,26.4679,-82.0631,1.97,4.53,1111122 
SCCF RECON,ioos:station:SCCF:11:1,2017-07-02T14:00:00Z,26.4679,-82.0631,2.02,4.32,1111122 
SCCF RECON,ioos:station:SCCF:11:1,2017-07-02T15:00:00Z,26.4679,-82.0631,2.02,4.82,1111122 
SCCF RECON,ioos:station:SCCF:11:1,2017-07-02T16:00:00Z,26.4679,-82.0631,2.02,5.1,1111122 
SCCF RECON,ioos:station:SCCF:11:1,2017-07-02T17:00:00Z,26.4679,-82.0631,2.0,5.32,1111122 
SCCF RECON,ioos:station:SCCF:11:1,2017-07-02T18:00:00Z,26.4679,-82.0631,1.98,5.89,1111122 
SCCF RECON,ioos:station:SCCF:11:1,2017-07-02T19:00:00Z,26.4679,-82.0631,1.94,6.37,1111122 
SCCF RECON,ioos:station:SCCF:11:1,2017-07-02T20:00:00Z,26.4679,-82.0631,1.87,6.98,1111122 
SCCF RECON,ioos:station:SCCF:11:1,2017-07-02T21:00:00Z,26.4679,-82.0631,1.81,7.5,1111122 
SCCF RECON,ioos:station:SCCF:11:1,2017-07-02T22:00:00Z,26.4679,-82.0631,1.77,6.37,1111122 
SCCF RECON,ioos:station:SCCF:11:1,2017-07-02T23:00:00Z,26.4679,-82.0631,1.76,6.17,1111122 
SCCF RECON,ioos:station:SCCF:11:1,2017-07-03T00:00:00Z,26.4679,-82.0631,1.79,6.12,1111122 
SCCF RECON,ioos:station:SCCF:11:1,2017-07-03T01:00:00Z,26.4679,-82.0631,1.81,5.95,1111122 
SCCF RECON,ioos:station:SCCF:11:1,2017-07-03T02:00:00Z,26.4679,-82.0631,1.84,5.31,1111122 
SCCF RECON,ioos:station:SCCF:11:1,2017-07-03T03:00:00Z,26.4679,-82.0631,1.86,5.0,1111122 
SCCF RECON,ioos:station:SCCF:11:1,2017-07-03T04:00:00Z,26.4679,-82.0631,1.868,4.56,1111122 
SCCF RECON,ioos:station:SCCF:11:1,2017-07-03T05:00:00Z,26.4679,-82.0631,1.86,5.6,1111122 
SCCF RECON,ioos:station:SCCF:11:1,2017-07-03T06:00:00Z,26.4679,-82.0631,1.86,5.39,1111122 
SCCF RECON,ioos:station:SCCF:11:1,2017-07-03T07:00:00Z,26.4679,-82.0631,1.834,5.28,1111122 
SCCF RECON,ioos:station:SCCF:11:1,2017-07-03T08:00:00Z,26.4679,-82.0631,1.81,4.98,1111122 
SCCF RECON,ioos:station:SCCF:11:1,2017-07-03T09:00:00Z,26.4679,-82.0631,1.79,4.87,1111122 
SCCF RECON,ioos:station:SCCF:11:1,2017-07-03T10:00:00Z,26.4679,-82.0631,1.77,4.86,1111122 
SCCF RECON,ioos:station:SCCF:11:1,2017-07-03T11:00:00Z,26.4679,-82.0631,1.791,4.82,1111122 
SCCF RECON,ioos:station:SCCF:11:1,2017-07-03T12:00:00Z,26.4679,-82.0631,1.87,4.17,1111122 
SCCF RECON,ioos:station:SCCF:11:1,2017-07-03T13:00:00Z,26.4679,-82.0631,1.94,3.78,1111122 
SCCF RECON,ioos:station:SCCF:11:1,2017-07-03T14:00:00Z,26.4679,-82.0631,2.0,3.18,1111122 
SCCF RECON,ioos:station:SCCF:11:1,2017-07-03T15:00:00Z,26.4679,-82.0631,2.04,4.16,1111122 
SCCF RECON,ioos:station:SCCF:11:1,2017-07-03T16:00:00Z,26.4679,-82.0631,2.06,5.17,1111122 
SCCF RECON,ioos:station:SCCF:11:1,2017-07-03T17:00:00Z,26.4679,-82.0631,2.05,5.18,1111122 
SCCF RECON,ioos:station:SCCF:11:1,2017-07-03T18:00:00Z,26.4679,-82.0631,2.02,5.62,1111122 
SCCF RECON,ioos:station:SCCF:11:1,2017-07-03T19:00:00Z,26.4679,-82.0631,1.97,6.17,1111122 
SCCF RECON,ioos:station:SCCF:11:1,2017-07-03T20:00:00Z,26.4679,-82.0631,1.9,6.64,1111122 
SCCF RECON,ioos:station:SCCF:11:1,2017-07-03T21:00:00Z,26.4679,-82.0631,1.82,7.18,1111122 
SCCF RECON,ioos:station:SCCF:11:1,2017-07-03T22:00:00Z,26.4679,-82.0631,1.75,7.36,1111122 
SCCF RECON,ioos:station:SCCF:11:1,2017-07-03T23:00:00Z,26.4679,-82.0631,1.696,6.38,1111122 
SCCF RECON,ioos:station:SCCF:11:1,2017-07-04T00:00:00Z,26.4679,-82.0631,1.69,5.88,1111122 
SCCF RECON,ioos:station:SCCF:11:1,2017-07-04T01:00:00Z,26.4679,-82.0631,1.73,5.9,1111122 
SCCF RECON,ioos:station:SCCF:11:1,2017-07-04T02:00:00Z,26.4679,-82.0631,1.75,5.63,1111122 
SCCF RECON,ioos:station:SCCF:11:1,2017-07-04T03:00:00Z,26.4679,-82.0631,1.79,5.36,1111122 
SCCF RECON,ioos:station:SCCF:11:1,2017-07-04T04:00:00Z,26.4679,-82.0631,1.81,5.1,1111122 
SCCF RECON,ioos:station:SCCF:11:1,2017-07-04T05:00:00Z,26.4679,-82.0631,1.85,4.27,1111122 
SCCF RECON,ioos:station:SCCF:11:1,2017-07-04T06:00:00Z,26.4679,-82.0631,1.87,4.52,1111122 
SCCF RECON,ioos:station:SCCF:11:1,2017-07-04T07:00:00Z,26.4679,-82.0631,1.87,4.95,1111122 
SCCF RECON,ioos:station:SCCF:11:1,2017-07-04T08:00:00Z,26.4679,-82.0631,1.83,5.02,1111122 
SCCF RECON,ioos:station:SCCF:11:1,2017-07-04T09:00:00Z,26.4679,-82.0631,1.81,4.77,1111122 
SCCF RECON,ioos:station:SCCF:11:1,2017-07-04T10:00:00Z,26.4679,-82.0631,1.81,4.61,1111122 
SCCF RECON,ioos:station:SCCF:11:1,2017-07-04T11:00:00Z,26.4679,-82.0631,1.8,4.91,1111122 
SCCF RECON,ioos:station:SCCF:11:1,2017-07-04T12:00:00Z,26.4679,-82.0631,1.849,4.81,1111122 
SCCF RECON,ioos:station:SCCF:11:1,2017-07-04T13:00:00Z,26.4679,-82.0631,1.9,4.47,1111122 
SCCF RECON,ioos:station:SCCF:11:1,2017-07-04T14:00:00Z,26.4679,-82.0631,1.98,4.5,1111122 
SCCF RECON,ioos:station:SCCF:11:1,2017-07-04T15:00:00Z,26.4679,-82.0631,2.03,4.36,1111122 
SCCF RECON,ioos:station:SCCF:11:1,2017-07-04T16:00:00Z,26.4679,-82.0631,2.075,5.02,1111122 
SCCF RECON,ioos:station:SCCF:11:1,2017-07-04T17:00:00Z,26.4679,-82.0631,2.1,5.21,1111122 
SCCF RECON,ioos:station:SCCF:11:1,2017-07-04T18:00:00Z,26.4679,-82.0631,2.08,5.4,1111122 
SCCF RECON,ioos:station:SCCF:11:1,2017-07-04T19:00:00Z,26.4679,-82.0631,2.04,5.53,1111122 
SCCF RECON,ioos:station:SCCF:11:1,2017-07-04T20:00:00Z,26.4679,-82.0631,1.95,5.5,1111122 
SCCF RECON,ioos:station:SCCF:11:1,2017-07-04T21:00:00Z,26.4679,-82.0631,1.853,6.03,1111122 
SCCF RECON,ioos:station:SCCF:11:1,2017-07-04T22:00:00Z,26.4679,-82.0631,1.759,5.37,1111122 
SCCF RECON,ioos:station:SCCF:11:1,2017-07-04T23:00:00Z,26.4679,-82.0631,1.68,5.35,1111122 
SCCF RECON,ioos:station:SCCF:11:1,2017-07-05T00:00:00Z,26.4679,-82.0631,1.64,5.7,1111122 
SCCF RECON,ioos:station:SCCF:11:1,2017-07-05T01:00:00Z,26.4679,-82.0631,1.63,5.44,1111122 
SCCF RECON,ioos:station:SCCF:11:1,2017-07-05T02:00:00Z,26.4679,-82.0631,1.66,5.36,1111122 
SCCF RECON,ioos:station:SCCF:11:1,2017-07-05T03:00:00Z,26.4679,-82.0631,1.722,5.1,1111122 
SCCF RECON,ioos:station:SCCF:11:1,2017-07-05T04:00:00Z,26.4679,-82.0631,1.78,5.06,1111122 
SCCF RECON,ioos:station:SCCF:11:1,2017-07-05T05:00:00Z,26.4679,-82.0631,1.84,4.66,1111122 
SCCF RECON,ioos:station:SCCF:11:1,2017-07-05T06:00:00Z,26.4679,-82.0631,1.86,4.86,1111122 
SCCF RECON,ioos:station:SCCF:11:1,2017-07-05T07:00:00Z,26.4679,-82.0631,1.86,4.65,1111122 
SCCF RECON,ioos:station:SCCF:11:1,2017-07-05T08:00:00Z,26.4679,-82.0631,1.85,4.42,1111122 
SCCF RECON,ioos:station:SCCF:11:1,2017-07-05T09:00:00Z,26.4679,-82.0631,1.83,4.22,1111122 
SCCF RECON,ioos:station:SCCF:11:1,2017-07-05T10:00:00Z,26.4679,-82.0631,1.83,4.23,1111122 
SCCF RECON,ioos:station:SCCF:11:1,2017-07-05T11:00:00Z,26.4679,-82.0631,1.83,4.07,1111122 
SCCF RECON,ioos:station:SCCF:11:1,2017-07-05T12:00:00Z,26.4679,-82.0631,1.85,4.22,1111122 
SCCF RECON,ioos:station:SCCF:11:1,2017-07-05T13:00:00Z,26.4679,-82.0631,1.9,4.56,1111122 
SCCF RECON,ioos:station:SCCF:11:1,2017-07-05T14:00:00Z,26.4679,-82.0631,1.937,4.83,1111122 
SCCF RECON,ioos:station:SCCF:11:1,2017-07-05T15:00:00Z,26.4679,-82.0631,2.0,4.83,1111122 
SCCF RECON,ioos:station:SCCF:11:1,2017-07-05T16:00:00Z,26.4679,-82.0631,2.07,4.57,1111122 
SCCF RECON,ioos:station:SCCF:11:1,2017-07-05T17:00:00Z,26.4679,-82.0631,2.102,5.41,1111122 
SCCF RECON,ioos:station:SCCF:11:1,2017-07-05T18:00:00Z,26.4679,-82.0631,2.109,5.42,1111122 
SCCF RECON,ioos:station:SCCF:11:1,2017-07-05T19:00:00Z,26.4679,-82.0631,2.067,5.87,1111122 
SCCF RECON,ioos:station:SCCF:11:1,2017-07-05T20:00:00Z,26.4679,-82.0631,1.99,6.33,1111122 
SCCF RECON,ioos:station:SCCF:11:1,2017-07-05T21:00:00Z,26.4679,-82.0631,1.864,5.73,1111122 
SCCF RECON,ioos:station:SCCF:11:1,2017-07-05T22:00:00Z,26.4679,-82.0631,1.75,5.52,1111122 
SCCF RECON,ioos:station:SCCF:11:1,2017-07-05T23:00:00Z,26.4679,-82.0631,1.64,5.26,1111122 
SCCF RECON,ioos:station:SCCF:11:1,2017-07-06T00:00:00Z,26.4679,-82.0631,1.58,5.44,1111122 
SCCF RECON,ioos:station:SCCF:11:1,2017-07-06T01:00:00Z,26.4679,-82.0631,1.59,5.49,1111122 
SCCF RECON,ioos:station:SCCF:11:1,2017-07-06T02:00:00Z,26.4679,-82.0631,1.63,5.31,1111122 
SCCF RECON,ioos:station:SCCF:11:1,2017-07-06T03:00:00Z,26.4679,-82.0631,1.71,5.25,1111122 
SCCF RECON,ioos:station:SCCF:11:1,2017-07-06T04:00:00Z,26.4679,-82.0631,1.8,5.01,1111122 
SCCF RECON,ioos:station:SCCF:11:1,2017-07-06T05:00:00Z,26.4679,-82.0631,1.87,5.03,1111122 
SCCF RECON,ioos:station:SCCF:11:1,2017-07-06T06:00:00Z,26.4679,-82.0631,1.931,5.05,1111122 
SCCF RECON,ioos:station:SCCF:11:1,2017-07-06T07:00:00Z,26.4679,-82.0631,1.94,4.83,1111122 
SCCF RECON,ioos:station:SCCF:11:1,2017-07-06T08:00:00Z,26.4679,-82.0631,1.92,4.52,1111122 
SCCF RECON,ioos:station:SCCF:11:1,2017-07-06T09:00:00Z,26.4679,-82.0631,1.88,4.45,1111122 
SCCF RECON,ioos:station:SCCF:11:1,2017-07-06T10:00:00Z,26.4679,-82.0631,1.839,4.15,1111122 
SCCF RECON,ioos:station:SCCF:11:1,2017-07-06T11:00:00Z,26.4679,-82.0631,1.8,3.75,1111122 
SCCF RECON,ioos:station:SCCF:11:1,2017-07-06T12:00:00Z,26.4679,-82.0631,1.82,4.23,1111122 
SCCF RECON,ioos:station:SCCF:11:1,2017-07-06T13:00:00Z,26.4679,-82.0631,1.89,4.45,1111122 
SCCF RECON,ioos:station:SCCF:11:1,2017-07-06T14:00:00Z,26.4679,-82.0631,1.98,4.76,1111122 
SCCF RECON,ioos:station:SCCF:11:1,2017-07-06T15:00:00Z,26.4679,-82.0631,2.07,4.52,1111122 
SCCF RECON,ioos:station:SCCF:11:1,2017-07-06T16:00:00Z,26.4679,-82.0631,2.14,4.37,1111122 
SCCF RECON,ioos:station:SCCF:11:1,2017-07-06T17:00:00Z,26.4679,-82.0631,2.162,5.15,1111122 
SCCF RECON,ioos:station:SCCF:11:1,2017-07-06T18:00:00Z,26.4679,-82.0631,2.2,6.16,1111122 
SCCF RECON,ioos:station:SCCF:11:1,2017-07-06T19:00:00Z,26.4679,-82.0631,2.12,5.75,1111122 
SCCF RECON,ioos:station:SCCF:11:1,2017-07-06T20:00:00Z,26.4679,-82.0631,2.0,5.61,1111122 
SCCF RECON,ioos:station:SCCF:11:1,2017-07-06T21:00:00Z,26.4679,-82.0631,1.861,5.27,1111122 
SCCF RECON,ioos:station:SCCF:11:1,2017-07-06T22:00:00Z,26.4679,-82.0631,1.74,5.09,1111122 
SCCF RECON,ioos:station:SCCF:11:1,2017-07-06T23:00:00Z,26.4679,-82.0631,1.63,5.03,1111122 
SCCF RECON,ioos:station:SCCF:11:1,2017-07-07T00:00:00Z,26.4679,-82.0631,1.54,5.06,1111122 
SCCF RECON,ioos:station:SCCF:11:1,2017-07-07T01:00:00Z,26.4679,-82.0631,1.517,4.84,1111122 
SCCF RECON,ioos:station:SCCF:11:1,2017-07-07T02:00:00Z,26.4679,-82.0631,1.54,5.0,1111122 
SCCF RECON,ioos:station:SCCF:11:1,2017-07-07T03:00:00Z,26.4679,-82.0631,1.61,4.85,1111122 
SCCF RECON,ioos:station:SCCF:11:1,2017-07-07T04:00:00Z,26.4679,-82.0631,1.71,4.76,1111122 
SCCF RECON,ioos:station:SCCF:11:1,2017-07-07T05:00:00Z,26.4679,-82.0631,1.794,4.54,1111122 
SCCF RECON,ioos:station:SCCF:11:1,2017-07-07T06:00:00Z,26.4679,-82.0631,1.86,4.41,1111122 
SCCF RECON,ioos:station:SCCF:11:1,2017-07-07T07:00:00Z,26.4679,-82.0631,1.9,4.43,1111122 
SCCF RECON,ioos:station:SCCF:11:1,2017-07-07T08:00:00Z,26.4679,-82.0631,1.9,4.16,1111122 
SCCF RECON,ioos:station:SCCF:11:1,2017-07-07T09:00:00Z,26.4679,-82.0631,1.89,3.92,1111122 
SCCF RECON,ioos:station:SCCF:11:1,2017-07-07T10:00:00Z,26.4679,-82.0631,1.88,4.16,1111122 
SCCF RECON,ioos:station:SCCF:11:1,2017-07-07T11:00:00Z,26.4679,-82.0631,1.86,3.24,1111122 
SCCF RECON,ioos:station:SCCF:11:1,2017-07-07T12:00:00Z,26.4679,-82.0631,1.86,4.22,1111122 
SCCF RECON,ioos:station:SCCF:11:1,2017-07-07T13:00:00Z,26.4679,-82.0631,1.88,4.38,1111122 
SCCF RECON,ioos:station:SCCF:11:1,2017-07-07T14:00:00Z,26.4679,-82.0631,1.96,4.63,1111122 
SCCF RECON,ioos:station:SCCF:11:1,2017-07-07T15:00:00Z,26.4679,-82.0631,2.06,4.52,1111122 
SCCF RECON,ioos:station:SCCF:11:1,2017-07-07T16:00:00Z,26.4679,-82.0631,2.145,4.51,1111122 
SCCF RECON,ioos:station:SCCF:11:1,2017-07-07T17:00:00Z,26.4679,-82.0631,2.19,3.98,1111122 
SCCF RECON,ioos:station:SCCF:11:1,2017-07-07T18:00:00Z,26.4679,-82.0631,2.21,5.53,1111122 
SCCF RECON,ioos:station:SCCF:11:1,2017-07-07T19:00:00Z,26.4679,-82.0631,2.19,5.96,1111122 
SCCF RECON,ioos:station:SCCF:11:1,2017-07-07T20:00:00Z,26.4679,-82.0631,2.1,5.62,1111122 
SCCF RECON,ioos:station:SCCF:11:1,2017-07-07T21:00:00Z,26.4679,-82.0631,2.0,5.81,1111122 
SCCF RECON,ioos:station:SCCF:11:1,2017-07-07T22:00:00Z,26.4679,-82.0631,1.88,5.93,1111122 
SCCF RECON,ioos:station:SCCF:11:1,2017-07-07T23:00:00Z,26.4679,-82.0631,1.74,5.94,1111122 
SCCF RECON,ioos:station:SCCF:11:1,2017-07-08T00:00:00Z,26.4679,-82.0631,1.63,5.87,1111122 
SCCF RECON,ioos:station:SCCF:11:1,2017-07-08T01:00:00Z,26.4679,-82.0631,1.56,6.11,1111122 
SCCF RECON,ioos:station:SCCF:11:1,2017-07-08T02:00:00Z,26.4679,-82.0631,1.55,5.55,1111122 
SCCF RECON,ioos:station:SCCF:11:1,2017-07-08T03:00:00Z,26.4679,-82.0631,1.606,5.6,1111122 
SCCF RECON,ioos:station:SCCF:11:1,2017-07-08T04:00:00Z,26.4679,-82.0631,1.69,5.59,1111122 
SCCF RECON,ioos:station:SCCF:11:1,2017-07-08T05:00:00Z,26.4679,-82.0631,1.78,5.38,1111122 
SCCF RECON,ioos:station:SCCF:11:1,2017-07-08T06:00:00Z,26.4679,-82.0631,1.87,4.76,1111122 
SCCF RECON,ioos:station:SCCF:11:1,2017-07-08T07:00:00Z,26.4679,-82.0631,1.94,5.12,1111122 
SCCF RECON,ioos:station:SCCF:11:1,2017-07-08T08:00:00Z,26.4679,-82.0631,1.943,5.15,1111122 
SCCF RECON,ioos:station:SCCF:11:1,2017-07-08T09:00:00Z,26.4679,-82.0631,1.92,4.81,1111122 
SCCF RECON,ioos:station:SCCF:11:1,2017-07-08T10:00:00Z,26.4679,-82.0631,1.893,4.7,1111122 
SCCF RECON,ioos:station:SCCF:11:1,2017-07-08T11:00:00Z,26.4679,-82.0631,1.869,4.44,1111122 
SCCF RECON,ioos:station:SCCF:11:1,2017-07-08T12:00:00Z,26.4679,-82.0631,1.86,4.44,1111122 
SCCF RECON,ioos:station:SCCF:11:1,2017-07-08T13:00:00Z,26.4679,-82.0631,1.878,4.79,1111122 
SCCF RECON,ioos:station:SCCF:11:1,2017-07-08T14:00:00Z,26.4679,-82.0631,1.95,5.08,1111122 
SCCF RECON,ioos:station:SCCF:11:1,2017-07-08T15:00:00Z,26.4679,-82.0631,2.02,4.97,1111122 
SCCF RECON,ioos:station:SCCF:11:1,2017-07-08T16:00:00Z,26.4679,-82.0631,2.116,5.29,1111122 
SCCF RECON,ioos:station:SCCF:11:1,2017-07-08T17:00:00Z,26.4679,-82.0631,2.17,4.14,1111122 
SCCF RECON,ioos:station:SCCF:11:1,2017-07-08T18:00:00Z,26.4679,-82.0631,2.19,5.01,1111122 
SCCF RECON,ioos:station:SCCF:11:1,2017-07-08T19:00:00Z,26.4679,-82.0631,2.23,6.4,1111122 
SCCF RECON,ioos:station:SCCF:11:1,2017-07-08T20:00:00Z,26.4679,-82.0631,2.15,6.08,1111122 
SCCF RECON,ioos:station:SCCF:11:1,2017-07-08T21:00:00Z,26.4679,-82.0631,2.04,6.01,1111122 
SCCF RECON,ioos:station:SCCF:11:1,2017-07-08T22:00:00Z,26.4679,-82.0631,1.909,5.85,1111122 
SCCF RECON,ioos:station:SCCF:11:1,2017-07-08T23:00:00Z,26.4679,-82.0631,1.77,5.53,1111122 
SCCF RECON,ioos:station:SCCF:11:1,2017-07-09T00:00:00Z,26.4679,-82.0631,1.64,5.29,1111122 
SCCF RECON,ioos:station:SCCF:11:1,2017-07-09T01:00:00Z,26.4679,-82.0631,1.545,5.75,1111122 
SCCF RECON,ioos:station:SCCF:11:1,2017-07-09T02:00:00Z,26.4679,-82.0631,1.51,4.98,1111122 
SCCF RECON,ioos:station:SCCF:11:1,2017-07-09T03:00:00Z,26.4679,-82.0631,1.531,5.28,1111122 
SCCF RECON,ioos:station:SCCF:11:1,2017-07-09T04:00:00Z,26.4679,-82.0631,1.58,5.22,1111122 
SCCF RECON,ioos:station:SCCF:11:1,2017-07-09T05:00:00Z,26.4679,-82.0631,1.685,5.08,1111122 
SCCF RECON,ioos:station:SCCF:11:1,2017-07-09T06:00:00Z,26.4679,-82.0631,1.77,5.1,1111122 
SCCF RECON,ioos:station:SCCF:11:1,2017-07-09T07:00:00Z,26.4679,-82.0631,1.859,4.77,1111122 
SCCF RECON,ioos:station:SCCF:11:1,2017-07-09T08:00:00Z,26.4679,-82.0631,1.9,4.82,1111122 
SCCF RECON,ioos:station:SCCF:11:1,2017-07-09T09:00:00Z,26.4679,-82.0631,1.91,4.87,1111122 
SCCF RECON,ioos:station:SCCF:11:1,2017-07-09T10:00:00Z,26.4679,-82.0631,1.9,4.64,1111122 
SCCF RECON,ioos:station:SCCF:11:1,2017-07-09T11:00:00Z,26.4679,-82.0631,1.871,4.37,1111122 
SCCF RECON,ioos:station:SCCF:11:1,2017-07-09T12:00:00Z,26.4679,-82.0631,1.853,3.91,1111122 
SCCF RECON,ioos:station:SCCF:11:1,2017-07-09T13:00:00Z,26.4679,-82.0631,1.855,4.16,1111122 
SCCF RECON,ioos:station:SCCF:11:1,2017-07-09T14:00:00Z,26.4679,-82.0631,1.88,4.69,1111122 
SCCF RECON,ioos:station:SCCF:11:1,2017-07-09T15:00:00Z,26.4679,-82.0631,1.95,4.94,1111122 
SCCF RECON,ioos:station:SCCF:11:1,2017-07-09T16:00:00Z,26.4679,-82.0631,2.036,5.21,1111122 
SCCF RECON,ioos:station:SCCF:11:1,2017-07-09T17:00:00Z,26.4679,-82.0631,2.147,5.47,1111122 
SCCF RECON,ioos:station:SCCF:11:1,2017-07-09T18:00:00Z,26.4679,-82.0631,2.2,5.28,1111122 
SCCF RECON,ioos:station:SCCF:11:1,2017-07-09T19:00:00Z,26.4679,-82.0631,2.209,6.24,1111122 
SCCF RECON,ioos:station:SCCF:11:1,2017-07-09T20:00:00Z,26.4679,-82.0631,2.16,6.04,1111122 
SCCF RECON,ioos:station:SCCF:11:1,2017-07-09T21:00:00Z,26.4679,-82.0631,2.08,5.61,1111122 
SCCF RECON,ioos:station:SCCF:11:1,2017-07-09T22:00:00Z,26.4679,-82.0631,1.97,5.43,1111122 
SCCF RECON,ioos:station:SCCF:11:1,2017-07-09T23:00:00Z,26.4679,-82.0631,1.85,5.25,1111122 
SCCF RECON,ioos:station:SCCF:11:1,2017-07-10T00:00:00Z,26.4679,-82.0631,1.73,5.12,1111122 
SCCF RECON,ioos:station:SCCF:11:1,2017-07-10T01:00:00Z,26.4679,-82.0631,1.615,5.02,1111122 
SCCF RECON,ioos:station:SCCF:11:1,2017-07-10T02:00:00Z,26.4679,-82.0631,1.539,4.99,1111122 
SCCF RECON,ioos:station:SCCF:11:1,2017-07-10T03:00:00Z,26.4679,-82.0631,1.524,4.96,1111122 
SCCF RECON,ioos:station:SCCF:11:1,2017-07-10T04:00:00Z,26.4679,-82.0631,1.574,5.04,1111122 
SCCF RECON,ioos:station:SCCF:11:1,2017-07-10T05:00:00Z,26.4679,-82.0631,1.64,5.22,1111122 
SCCF RECON,ioos:station:SCCF:11:1,2017-07-10T06:00:00Z,26.4679,-82.0631,1.73,4.92,1111122 
SCCF RECON,ioos:station:SCCF:11:1,2017-07-10T07:00:00Z,26.4679,-82.0631,1.81,4.69,1111122 
SCCF RECON,ioos:station:SCCF:11:1,2017-07-10T08:00:00Z,26.4679,-82.0631,1.88,4.75,1111122 
SCCF RECON,ioos:station:SCCF:11:1,2017-07-10T09:00:00Z,26.4679,-82.0631,1.91,4.87,1111122 
SCCF RECON,ioos:station:SCCF:11:1,2017-07-10T10:00:00Z,26.4679,-82.0631,1.91,4.58,1111122 
SCCF RECON,ioos:station:SCCF:11:1,2017-07-10T11:00:00Z,26.4679,-82.0631,1.895,4.41,1111122 
SCCF RECON,ioos:station:SCCF:11:1,2017-07-10T12:00:00Z,26.4679,-82.0631,1.87,4.29,1111122 
SCCF RECON,ioos:station:SCCF:11:1,2017-07-10T13:00:00Z,26.4679,-82.0631,1.84,4.04,1111122 
SCCF RECON,ioos:station:SCCF:11:1,2017-07-10T14:00:00Z,26.4679,-82.0631,1.84,4.3,1111122 
SCCF RECON,ioos:station:SCCF:11:1,2017-07-10T15:00:00Z,26.4679,-82.0631,1.88,5.19,1111122 
SCCF RECON,ioos:station:SCCF:11:1,2017-07-10T16:00:00Z,26.4679,-82.0631,1.966,5.28,1111122 
SCCF RECON,ioos:station:SCCF:11:1,2017-07-10T17:00:00Z,26.4679,-82.0631,2.07,5.02,1111122 
SCCF RECON,ioos:station:SCCF:11:1,2017-07-10T18:00:00Z,26.4679,-82.0631,2.15,6.12,1111122 
SCCF RECON,ioos:station:SCCF:11:1,2017-07-10T19:00:00Z,26.4679,-82.0631,2.2,5.36,1111122 
SCCF RECON,ioos:station:SCCF:11:1,2017-07-10T20:00:00Z,26.4679,-82.0631,2.19,6.06,1111122 
SCCF RECON,ioos:station:SCCF:11:1,2017-07-10T21:00:00Z,26.4679,-82.0631,2.14,5.63,1111122 
SCCF RECON,ioos:station:SCCF:11:1,2017-07-10T22:00:00Z,26.4679,-82.0631,2.06,5.19,1111122 
SCCF RECON,ioos:station:SCCF:11:1,2017-07-10T23:00:00Z,26.4679,-82.0631,1.95,4.83,1111122 
SCCF RECON,ioos:station:SCCF:11:1,2017-07-11T00:00:00Z,26.4679,-82.0631,1.82,4.43,1111122 
SCCF RECON,ioos:station:SCCF:11:1,2017-07-11T01:00:00Z,26.4679,-82.0631,1.71,4.2,1111122 
SCCF RECON,ioos:station:SCCF:11:1,2017-07-11T02:00:00Z,26.4679,-82.0631,1.62,4.27,1111122 
SCCF RECON,ioos:station:SCCF:11:1,2017-07-11T03:00:00Z,26.4679,-82.0631,1.57,4.48,1111122 
SCCF RECON,ioos:station:SCCF:11:1,2017-07-11T04:00:00Z,26.4679,-82.0631,1.57,4.37,1111122 
SCCF RECON,ioos:station:SCCF:11:1,2017-07-11T05:00:00Z,26.4679,-82.0631,1.61,4.86,1111122 
SCCF RECON,ioos:station:SCCF:11:1,2017-07-11T06:00:00Z,26.4679,-82.0631,1.7,4.64,1111122 
SCCF RECON,ioos:station:SCCF:11:1,2017-07-11T07:00:00Z,26.4679,-82.0631,1.778,4.64,1111122 
SCCF RECON,ioos:station:SCCF:11:1,2017-07-11T08:00:00Z,26.4679,-82.0631,1.842,4.53,1111122 
SCCF RECON,ioos:station:SCCF:11:1,2017-07-11T09:00:00Z,26.4679,-82.0631,1.884,4.5,1111122 
SCCF RECON,ioos:station:SCCF:11:1,2017-07-11T10:00:00Z,26.4679,-82.0631,1.91,4.35,1111122 
SCCF RECON,ioos:station:SCCF:11:1,2017-07-11T11:00:00Z,26.4679,-82.0631,1.897,4.43,1111122 
SCCF RECON,ioos:station:SCCF:11:1,2017-07-11T12:00:00Z,26.4679,-82.0631,1.86,4.01,1111122 
SCCF RECON,ioos:station:SCCF:11:1,2017-07-11T13:00:00Z,26.4679,-82.0631,1.82,3.51,1111122 
SCCF RECON,ioos:station:SCCF:11:1,2017-07-11T14:00:00Z,26.4679,-82.0631,1.81,3.78,1111122 
SCCF RECON,ioos:station:SCCF:11:1,2017-07-11T15:00:00Z,26.4679,-82.0631,1.86,4.68,1111122 
SCCF RECON,ioos:station:SCCF:11:1,2017-07-11T16:00:00Z,26.4679,-82.0631,1.94,4.96,1111122 
SCCF RECON,ioos:station:SCCF:11:1,2017-07-11T17:00:00Z,26.4679,-82.0631,2.02,4.99,1111122 
SCCF RECON,ioos:station:SCCF:11:1,2017-07-11T18:00:00Z,26.4679,-82.0631,2.11,5.17,1111122 
SCCF RECON,ioos:station:SCCF:11:1,2017-07-11T19:00:00Z,26.4679,-82.0631,2.151,4.74,1111122 
SCCF RECON,ioos:station:SCCF:11:1,2017-07-11T20:00:00Z,26.4679,-82.0631,2.17,4.9,1111122 
SCCF RECON,ioos:station:SCCF:11:1,2017-07-11T21:00:00Z,26.4679,-82.0631,2.18,6.09,1111122 